H1 CPF 2 NER 2021 5 30 9 150 01 glonass107 H2 0706501 9107 32393 2021 5 30 0 0 0 2021 6 2 23 45 0 900 1 1 0 0 0 1 H9 10 0 59364 0.00000 0 -4018511.964 10514568.817 22874524.270 10 0 59364 900.00000 0 -6801632.011 10299556.410 22307203.910 10 0 59364 1800.00000 0 -9496413.884 10288275.457 21305971.859 10 0 59364 2700.00000 0 -12036227.743 10464908.797 19890309.395 10 0 59364 3600.00000 0 -14359621.095 10802374.043 18087766.448 10 0 59364 4500.00000 0 -16412653.213 11263569.488 15933423.754 10 0 59364 5400.00000 0 -18150922.546 11803058.892 13469207.442 10 0 59364 6300.00000 0 -19541202.960 12369123.642 10743069.374 10 0 59364 7200.00000 0 -20562621.010 12906094.906 7808049.425 10 0 59364 8100.00000 0 -21207325.905 13356866.536 4721238.262 10 0 59364 9000.00000 0 -21480625.164 13665481.749 1542661.259 10 0 59364 9900.00000 0 -21400581.501 13779683.462 -1665894.046 10 0 59364 10800.00000 0 -20997089.281 13653319.832 -4842083.514 10 0 59364 11700.00000 0 -20310470.847 13248502.679 -7924220.945 10 0 59364 12600.00000 0 -19389653.107 12537427.207 -10852477.378 10 0 59364 13500.00000 0 -18290002.397 11503775.848 -13570041.554 10 0 59364 14400.00000 0 -17070909.620 10143646.740 -16024219.033 10 0 59364 15300.00000 0 -15793227.888 8465967.558 -18167448.752 10 0 59364 16200.00000 0 -14516670.558 6492376.920 -19958217.943 10 0 59364 17100.00000 0 -13297278.766 4256577.896 -21361858.462 10 0 59364 18000.00000 0 -12185064.220 1803190.039 -22351209.986 10 0 59364 18900.00000 0 -11221925.254 -813852.981 -22907138.284 10 0 59364 19800.00000 0 -10439922.494 -3533294.517 -23018899.437 10 0 59364 20700.00000 0 -9859985.339 -6288853.183 -22684343.699 10 0 59364 21600.00000 0 -9491102.459 -9011734.150 -21909955.542 10 0 59364 22500.00000 0 -9330029.420 -11633250.709 -20710729.236 10 0 59364 23400.00000 0 -9361525.171 -14087448.654 -19109882.215 10 0 59364 24300.00000 0 -9559107.195 -16313625.892 -17138411.230 10 0 59364 25200.00000 0 -9886293.628 -18258643.768 -14834499.133 10 0 59364 26100.00000 0 -10298280.342 -19878934.812 -12242782.900 10 0 59364 27000.00000 0 -10743982.771 -21142124.058 -9413496.142 10 0 59364 27900.00000 0 -11168356.780 -22028196.729 -6401501.820 10 0 59364 28800.00000 0 -11514900.925 -22530163.533 -3265233.258 10 0 59364 29700.00000 0 -11728234.521 -22654195.997 -65563.587 10 0 59364 30600.00000 0 -11756642.294 -22419225.902 3135374.777 10 0 59364 31500.00000 0 -11554477.564 -21856025.702 6275397.447 10 0 59364 32400.00000 0 -11084321.586 -21005808.633 9293478.486 10 0 59364 33300.00000 0 -10318806.600 -19918407.270 12130940.010 10 0 59364 34200.00000 0 -9242024.217 -18650107.372 14732597.255 10 0 59364 35100.00000 0 -7850458.226 -17261228.391 17047836.361 10 0 59364 36000.00000 0 -6153400.790 -15813552.725 19031603.483 10 0 59364 36900.00000 0 -4172832.920 -14367712.169 20645285.553 10 0 59364 37800.00000 0 -1942772.590 -12980641.761 21857465.381 10 0 59364 38700.00000 0 491883.733 -11703208.209 22644536.261 10 0 59364 39600.00000 0 3076978.963 -10578112.704 22991164.036 10 0 59364 40500.00000 0 5751106.236 -9638156.168 22890587.629 10 0 59364 41400.00000 0 8447929.797 -8904939.623 22344752.163 10 0 59364 42300.00000 0 11098719.773 -8388054.008 21364272.011 10 0 59364 43200.00000 0 13634995.788 -8084792.993 19968224.411 10 0 59364 44100.00000 0 15991169.633 -7980400.312 18183777.519 10 0 59364 45000.00000 0 18107077.031 -8048840.499 16045660.043 10 0 59364 45900.00000 0 19930293.164 -8254059.759 13595482.710 10 0 59364 46800.00000 0 21418135.588 -8551682.919 10880924.762 10 0 59364 47700.00000 0 22539271.112 -8891073.898 7954801.557 10 0 59364 48600.00000 0 23274860.011 -9217671.691 4874031.715 10 0 59364 49500.00000 0 23619190.342 -9475502.123 1698524.366 10 0 59364 50400.00000 0 23579776.695 -9609758.222 -1509991.170 10 0 59364 51300.00000 0 23176920.356 -9569339.245 -4689169.881 10 0 59364 52200.00000 0 22442750.588 -9309240.174 -7777265.706 10 0 59364 53100.00000 0 21419788.576 -8792690.138 -10714332.112 10 0 59364 54000.00000 0 20159095.558 -7992948.923 -13443384.995 10 0 59364 54900.00000 0 18718083.946 -6894685.406 -15911505.299 10 0 59364 55800.00000 0 17158084.052 -5494879.546 -18070860.093 10 0 59364 56700.00000 0 15541768.873 -3803209.638 -19879622.891 10 0 59364 57600.00000 0 13930544.854 -1841908.120 -21302776.137 10 0 59364 58500.00000 0 12382017.505 354908.580 -22312781.214 10 0 59364 59400.00000 0 10947637.166 2742408.962 -22890103.988 10 0 59364 60300.00000 0 9670622.340 5266666.395 -23023586.706 10 0 59364 61200.00000 0 8584246.269 7866663.775 -22710659.715 10 0 59364 62100.00000 0 7710557.144 10476600.852 -21957389.474 10 0 59364 63000.00000 0 7059584.334 13028409.854 -20778362.068 10 0 59364 63900.00000 0 6629062.911 15454376.181 -19196404.297 10 0 59364 64800.00000 0 6404687.297 17689756.703 -17242147.275 10 0 59364 65700.00000 0 6360882.927 19675287.960 -14953440.207 10 0 59364 66600.00000 0 6462063.381 21359480.718 -12374624.837 10 0 59364 67500.00000 0 6664320.077 22700606.041 -9555683.697 10 0 59364 68400.00000 0 6917473.487 23668290.321 -6551277.759 10 0 59364 69300.00000 0 7167399.496 24244652.719 -3419691.509 10 0 59364 70200.00000 0 7358532.655 24424937.273 -221705.407 10 0 59364 71100.00000 0 7436440.342 24217612.961 2980582.659 10 0 59364 72000.00000 0 7350358.602 23643937.303 6124963.832 10 0 59364 72900.00000 0 7055581.664 22737001.490 9150329.060 10 0 59364 73800.00000 0 6515603.114 21540296.962 11997860.206 10 0 59364 74700.00000 0 5703917.032 20105863.599 14612177.763 10 0 59364 75600.00000 0 4605401.500 18492097.256 16942422.405 10 0 59364 76500.00000 0 3217224.567 16761308.915 18943248.885 10 0 59364 77400.00000 0 1549232.887 14977138.115 20575712.500 10 0 59364 78300.00000 0 -376195.029 13201929.402 21808030.693 10 0 59364 79200.00000 0 -2524826.389 11494181.976 22616204.824 10 0 59364 80100.00000 0 -4851755.546 9906179.555 22984489.900 10 0 59364 81000.00000 0 -7303041.170 8481899.728 22905703.142 10 0 59364 81900.00000 0 -9817731.853 7255290.145 22381365.328 10 0 59364 82800.00000 0 -12330196.328 6248983.457 21421672.134 10 0 59364 83700.00000 0 -14772661.744 5473504.273 20045295.918 10 0 59364 84600.00000 0 -17077854.512 4927000.662 18279021.682 10 0 59364 85500.00000 0 -19181633.693 4595510.593 16157224.217 10 0 59365 0.00000 0 -21025507.198 4453751.048 13721196.570 10 0 59365 900.00000 0 -22558925.599 4466395.472 11018342.561 10 0 59365 1800.00000 0 -23741258.308 4589784.421 8101250.152 10 0 59365 2700.00000 0 -24543368.412 4773996.132 5026662.828 10 0 59365 3600.00000 0 -24948722.147 4965188.140 1854370.333 10 0 59365 4500.00000 0 -24953985.774 5108109.912 -1353959.357 10 0 59365 5400.00000 0 -24569086.218 5148679.120 -4535983.415 10 0 59365 6300.00000 0 -23816733.658 5036511.634 -7629898.879 10 0 59365 7200.00000 0 -22731427.165 4727297.550 -10575644.484 10 0 59365 8100.00000 0 -21357986.178 4184922.209 -13316065.954 10 0 59365 9000.00000 0 -19749670.352 3383242.221 -15798022.082 10 0 59365 9900.00000 0 -17965967.384 2307441.312 -17973410.251 10 0 59365 10800.00000 0 -16070141.912 954908.562 -19800092.087 10 0 59365 11700.00000 0 -14126648.144 -664398.211 -21242702.050 10 0 59365 12600.00000 0 -12198514.118 -2528119.628 -22273324.194 10 0 59365 13500.00000 0 -10344806.162 -4602186.163 -22872024.995 10 0 59365 14400.00000 0 -8618278.377 -6842005.813 -23027232.900 10 0 59365 15300.00000 0 -7063304.036 -9194099.504 -22735957.960 10 0 59365 16200.00000 0 -5714173.845 -11598117.407 -22003847.848 10 0 59365 17100.00000 0 -4593830.715 -13989153.641 -20845079.334 10 0 59365 18000.00000 0 -3713092.666 -16300264.384 -19282087.178 10 0 59365 18900.00000 0 -3070395.317 -18465086.021 -17345135.221 10 0 59365 19800.00000 0 -2652063.851 -20420445.507 -15071737.189 10 0 59365 20700.00000 0 -2433102.578 -22108855.143 -12505937.643 10 0 59365 21600.00000 0 -2378468.528 -23480788.439 -9697466.022 10 0 59365 22500.00000 0 -2444775.361 -24496642.332 -6700779.268 10 0 59365 23400.00000 0 -2582355.732 -25128303.800 -3574010.973 10 0 59365 24300.00000 0 -2737594.941 -25360254.963 -377846.872 10 0 59365 25200.00000 0 -2855437.108 -25190170.040 2825651.722 10 0 59365 26100.00000 0 -2881957.516 -24628978.578 5974253.573 10 0 59365 27000.00000 0 -2766891.746 -23700391.780 9006768.623 10 0 59365 27900.00000 0 -2466013.767 -22439911.298 11864240.590 10 0 59365 28800.00000 0 -1943261.345 -20893361.701 14491097.338 10 0 59365 29700.00000 0 -1172517.669 -19115007.946 16836236.135 10 0 59365 30600.00000 0 -138972.510 -17165336.709 18854022.284 10 0 59365 31500.00000 0 1159995.983 -15108594.604 20505181.225 10 0 59365 32400.00000 0 2714457.602 -13010186.471 21757566.587 10 0 59365 33300.00000 0 4502101.382 -10934042.682 22586789.072 10 0 59365 34200.00000 0 6488936.144 -8940065.709 22976693.832 10 0 59365 35100.00000 0 8630492.280 -7081762.620 22919677.062 10 0 59365 36000.00000 0 10873475.666 -5404162.259 22416835.586 10 0 59365 36900.00000 0 13157805.387 -3942103.865 21477946.492 10 0 59365 37800.00000 0 15418950.845 -2718968.090 20121277.101 10 0 59365 38700.00000 0 17590471.075 -1745902.744 18373228.868 10 0 59365 39600.00000 0 19606650.322 -1021574.760 16267822.010 10 0 59365 40500.00000 0 21405119.820 -532457.597 13846030.864 10 0 59365 41400.00000 0 22929356.109 -253640.689 11154982.852 10 0 59365 42300.00000 0 24130951.138 -150125.503 8247036.909 10 0 59365 43200.00000 0 24971559.108 -178552.103 5178759.553 10 0 59365 44100.00000 0 25424438.464 -289281.905 2009818.986 10 0 59365 45000.00000 0 25475524.550 -428747.261 -1198180.604 10 0 59365 45900.00000 0 25123988.363 -541967.286 -4382901.233 10 0 59365 46800.00000 0 24382258.497 -575122.385 -7482485.826 10 0 59365 47700.00000 0 23275506.097 -478077.746 -10436761.213 10 0 59365 48600.00000 0 21840615.235 -206748.398 -13188405.717 10 0 59365 49500.00000 0 20124682.636 274794.563 -15684058.634 10 0 59365 50400.00000 0 18183110.259 992565.771 -17875350.157 10 0 59365 51300.00000 0 16077370.989 1961329.751 -19719832.342 10 0 59365 52200.00000 0 13872540.924 3183743.892 -21181793.797 10 0 59365 53100.00000 0 11634701.098 4650016.491 -22232943.185 10 0 59365 54000.00000 0 9428316.398 6338094.700 -22852949.318 10 0 59365 54900.00000 0 7313699.951 8214375.184 -23029828.322 10 0 59365 55800.00000 0 5344667.457 10234908.636 -22760171.141 10 0 59365 56700.00000 0 3566477.719 12347048.999 -22049207.511 10 0 59365 57600.00000 0 2014143.708 14491479.900 -20910705.370 10 0 59365 58500.00000 0 711183.168 16604535.128 -19366707.502 10 0 59365 59400.00000 0 -331140.398 18620717.746 -17447110.089 10 0 59365 60300.00000 0 -1114055.799 20475314.097 -15189090.569 10 0 59365 61200.00000 0 -1650992.101 22106994.555 -12636395.054 10 0 59365 62100.00000 0 -1966769.343 23460293.118 -9838498.159 10 0 59365 63000.00000 0 -2096306.483 24487862.728 -6849650.647 10 0 59365 63900.00000 0 -2082901.154 25152411.788 -3727832.676 10 0 59365 64800.00000 0 -1976153.987 25428240.456 -533632.379 10 0 59365 65700.00000 0 -1829625.431 25302311.898 2670928.652 10 0 59365 66600.00000 0 -1698324.367 24774812.731 5823600.115 10 0 59365 67500.00000 0 -1636135.262 23859178.416 8863114.347 10 0 59365 68400.00000 0 -1693293.373 22581581.700 11730380.332 10 0 59365 69300.00000 0 -1914015.683 20979904.850 14369636.627 10 0 59365 70200.00000 0 -2334388.821 19102238.222 16729540.265 10 0 59365 71100.00000 0 -2980604.443 17004967.630 18764170.040 10 0 59365 72000.00000 0 -3867617.895 14750530.409 20433924.216 10 0 59365 72900.00000 0 -4998288.103 12404933.849 21706294.953 10 0 59365 73800.00000 0 -6363036.371 10035139.672 22556504.261 10 0 59365 74700.00000 0 -7940039.757 7706423.771 22967988.966 10 0 59365 75600.00000 0 -9695952.237 5479821.315 22932725.270 10 0 59365 76500.00000 0 -11587124.544 3409763.587 22451386.526 10 0 59365 77400.00000 0 -13561272.495 1542004.929 21533331.131 10 0 59365 78300.00000 0 -15559524.661 -88074.294 20196420.669 10 0 59365 79200.00000 0 -17518764.211 -1456718.518 18466671.732 10 0 59365 80100.00000 0 -19374167.066 -2552550.247 16377748.092 10 0 59365 81000.00000 0 -21061830.185 -3376795.369 13970303.046 10 0 59365 81900.00000 0 -22521379.806 -3942972.472 11291184.704 10 0 59365 82800.00000 0 -23698450.025 -4276060.638 8392519.909 10 0 59365 83700.00000 0 -24546927.588 -4411182.357 5330694.881 10 0 59365 84600.00000 0 -25030868.478 -4391858.662 2165252.846 10 0 59365 85500.00000 0 -25126005.722 -4267911.675 -1042269.236 10 0 59366 0.00000 0 -24820785.227 -4093104.585 -4229541.544 10 0 59366 900.00000 0 -24116886.038 -3922620.351 -7334656.302 10 0 59366 1800.00000 0 -23029204.531 -3810486.021 -10297331.503 10 0 59366 2700.00000 0 -21585302.118 -3807053.706 -13060080.996 10 0 59366 3600.00000 0 -19824341.769 -3956643.743 -15569327.256 10 0 59366 4500.00000 0 -17795557.318 -4295450.891 -17776435.641 10 0 59366 5400.00000 0 -15556320.369 -4849801.557 -19638650.587 10 0 59366 6300.00000 0 -13169885.456 -5634835.677 -21119916.318 10 0 59366 7200.00000 0 -10702907.403 -6653668.693 -22191567.038 10 0 59366 8100.00000 0 -8222833.731 -7897069.035 -22832874.253 10 0 59366 9000.00000 0 -5795279.733 -9343665.002 -23031441.573 10 0 59366 9900.00000 0 -3481494.313 -10960672.937 -22783440.117 10 0 59366 10800.00000 0 -1336020.550 -12705117.110 -22093680.513 10 0 59366 11700.00000 0 595353.242 -14525491.400 -20975520.308 10 0 59366 12600.00000 0 2277268.117 -16363794.498 -19450608.457 10 0 59366 13500.00000 0 3686026.497 -18157854.944 -17548471.405 10 0 59366 14400.00000 0 4810331.421 -19843850.022 -15305948.048 10 0 59366 15300.00000 0 5651503.180 -21358914.254 -12766483.679 10 0 59366 16200.00000 0 6223165.123 -22643729.182 -9979295.665 10 0 59366 17100.00000 0 6550412.450 -23644986.501 -6998426.134 10 0 59366 18000.00000 0 6668499.273 -24317621.300 -3881699.318 10 0 59366 18900.00000 0 6621099.626 -24626721.630 -689603.326 10 0 59366 19800.00000 0 6458216.008 -24549033.465 2515882.348 10 0 59366 20700.00000 0 6233824.128 -24073997.109 5672490.659 10 0 59366 21600.00000 0 6003353.844 -23204270.690 8718878.554 10 0 59366 22500.00000 0 5821113.357 -21955717.497 11595822.394 10 0 59366 23400.00000 0 5737766.307 -20356856.769 14247373.384 10 0 59366 24300.00000 0 5797969.344 -18447800.013 16621950.094 10 0 59366 25200.00000 0 6038271.023 -16278716.669 18673346.355 10 0 59366 26100.00000 0 6485361.862 -13907892.733 20361634.514 10 0 59366 27000.00000 0 7154750.561 -11399463.123 21653946.217 10 0 59366 27900.00000 0 8049923.385 -8820912.110 22525115.408 10 0 59366 28800.00000 0 9162023.260 -6240445.988 22958170.874 10 0 59366 29700.00000 0 10470063.194 -3724347.287 22944668.791 10 0 59366 30600.00000 0 11941666.085 -1334420.520 22484858.718 10 0 59366 31500.00000 0 13534300.682 874364.300 21587679.786 10 0 59366 32400.00000 0 15196962.543 2855932.714 20270587.048 10 0 59366 33300.00000 0 16872229.954 4574786.102 18559211.263 10 0 59366 34200.00000 0 18498608.796 6007231.847 16486858.625 10 0 59366 35100.00000 0 20013068.046 7142113.057 14093860.108 10 0 59366 36000.00000 0 21353659.356 7981008.576 11426783.076 10 0 59366 36900.00000 0 22462110.418 8537896.304 8537520.676 10 0 59366 37800.00000 0 23286282.807 8838295.577 5482277.055 10 0 59366 38700.00000 0 23782390.636 8917926.415 2320468.518 10 0 59366 39600.00000 0 23916886.429 8820943.719 -886437.307 10 0 59366 40500.00000 0 23667934.696 8597822.611 -4076121.108 10 0 59366 41400.00000 0 23026411.201 8302985.609 -7186626.420 10 0 59366 42300.00000 0 21996386.030 7992273.128 -10157564.766 10 0 59366 43200.00000 0 20595070.358 7720365.148 -12931287.719 10 0 59366 44100.00000 0 18852229.409 7538263.602 -15454003.003 10 0 59366 45000.00000 0 16809086.473 7490942.155 -17676813.072 10 0 59366 45900.00000 0 14516763.984 7615262.593 -19556656.540 10 0 59366 46800.00000 0 12034326.721 7938245.584 -21057134.920 10 0 59366 47700.00000 0 9426508.502 8475768.406 -22149209.519 10 0 59366 48600.00000 0 6761216.489 9231744.285 -22811755.977 10 0 59366 49500.00000 0 4106916.005 10197817.801 -23031966.688 10 0 59366 50400.00000 0 1530003.490 11353589.322 -22805594.046 10 0 59366 51300.00000 0 -907724.637 12667359.554 -22137030.416 10 0 59366 52200.00000 0 -3151403.607 14097363.747 -21039223.480 10 0 59366 53100.00000 0 -5155136.949 15593444.817 -19533428.509 10 0 59366 54000.00000 0 -6883654.982 17099096.441 -17648801.956 10 0 59366 54900.00000 0 -8313527.431 18553791.728 -15421843.497 10 0 59366 55800.00000 0 -9433880.663 19895500.886 -12895696.514 10 0 59366 56700.00000 0 -10246590.578 21063293.291 -10119319.640 10 0 59366 57600.00000 0 -10765943.796 21999915.339 -7146544.506 10 0 59366 58500.00000 0 -11017781.830 22654236.052 -4035037.273 10 0 59366 59400.00000 0 -11038164.645 22983457.507 -845183.553 10 0 59366 60300.00000 0 -10871610.200 22954996.598 2361081.985 10 0 59366 61200.00000 0 -10568984.583 22547958.237 5521478.442 10 0 59366 62100.00000 0 -10185132.165 21754136.914 8574590.438 10 0 59366 63000.00000 0 -9776346.395 20578503.312 11461064.860 10 0 59366 63900.00000 0 -9397788.689 19039154.287 14124768.725 10 0 59366 64800.00000 0 -9100965.199 17166727.014 16513885.247 10 0 59366 65700.00000 0 -8931368.918 15003300.774 18581926.291 10 0 59366 66600.00000 0 -8926387.518 12600831.431 20288641.089 10 0 59366 67500.00000 0 -9113566.177 10019183.289 21600803.318 10 0 59366 68400.00000 0 -9509299.543 7323839.873 22492861.049 10 0 59366 69300.00000 0 -10118008.863 4583388.708 22947436.829 10 0 59366 70200.00000 0 -10931839.763 1866884.560 22955668.122 10 0 59366 71100.00000 0 -11930894.180 -758799.447 22517381.483 10 0 59366 72000.00000 0 -13083987.345 -3231522.779 21641096.976 10 0 59366 72900.00000 0 -14349898.515 -5496224.744 20343862.734 10 0 59366 73800.00000 0 -15679063.299 -7506970.821 18650922.678 10 0 59366 74700.00000 0 -17015636.568 -9228613.354 16595223.846 10 0 59366 75600.00000 0 -18299839.282 -10637998.239 14216772.789 10 0 59366 76500.00000 0 -19470490.341 -11724668.242 11561853.555 10 0 59366 77400.00000 0 -20467616.612 -12491034.775 8682122.677 10 0 59366 78300.00000 0 -21235030.854 -12952012.423 5633599.034 10 0 59366 79200.00000 0 -21722768.505 -13134133.203 2475568.642 10 0 59366 80100.00000 0 -21889280.241 -13074179.471 -730573.657 10 0 59366 81000.00000 0 -21703287.575 -12817394.762 -3922522.474 10 0 59366 81900.00000 0 -21145223.045 -12415349.584 -7038276.216 10 0 59366 82800.00000 0 -20208194.234 -11923553.589 -10017343.236 10 0 59366 83700.00000 0 -18898431.052 -11398916.027 -12801916.027 10 0 59366 84600.00000 0 -17235197.443 -10897162.492 -15337990.555 10 0 59366 85500.00000 0 -15250171.346 -10470317.362 -17576409.063 10 0 59367 0.00000 0 -12986318.828 -10164358.215 -19473806.612 10 0 59367 900.00000 0 -10496308.956 -10017141.210 -20993443.892 10 0 59367 1800.00000 0 -7840535.999 -10056683.366 -22105910.546 10 0 59367 2700.00000 0 -5084829.687 -10299875.437 -22789686.997 10 0 59367 3600.00000 0 -2297948.574 -10751677.049 -23031554.465 10 0 59367 4500.00000 0 451040.667 -11404829.091 -22826846.087 10 0 59367 5400.00000 0 3095390.545 -12240094.787 -22179534.914 10 0 59367 6300.00000 0 5573199.093 -13227019.832 -21102157.272 10 0 59367 7200.00000 0 7829731.751 -14325180.234 -19615572.908 10 0 59367 8100.00000 0 9819443.880 -15485866.309 -17748566.141 10 0 59367 9000.00000 0 11507621.063 -16654133.109 -15537295.034 10 0 59367 9900.00000 0 12871570.053 -17771132.167 -13024598.462 10 0 59367 10800.00000 0 13901311.653 -18776627.495 -10259173.562 10 0 59367 11700.00000 0 14599747.253 -19611590.700 -7294638.562 10 0 59367 12600.00000 0 14982292.652 -20220766.417 -4188498.546 10 0 59367 13500.00000 0 15075994.871 -20555100.022 -1001033.571 10 0 59367 14400.00000 0 14918169.437 -20573924.956 2205869.535 10 0 59367 15300.00000 0 14554615.862 -20246816.844 5369918.968 10 0 59367 16200.00000 0 14037486.836 -19555035.234 8429629.786 10 0 59367 17100.00000 0 13422901.479 -18492490.991 11325521.894 10 0 59367 18000.00000 0 12768403.788 -17066197.194 14001280.320 10 0 59367 18900.00000 0 12130374.242 -15296183.163 16404854.766 10 0 59367 19800.00000 0 11561504.430 -13214873.772 18489476.576 10 0 59367 20700.00000 0 11108441.967 -10865958.852 20214572.900 10 0 59367 21600.00000 0 10809705.748 -8302798.824 21546560.048 10 0 59367 22500.00000 0 10693960.094 -5586432.232 22459500.407 10 0 59367 23400.00000 0 10778721.131 -2783267.618 22935610.058 10 0 59367 24300.00000 0 11069550.451 37444.691 22965607.160 10 0 59367 25200.00000 0 11559770.472 2806256.096 22548894.329 10 0 59367 26100.00000 0 12230713.877 5456168.858 21693571.361 10 0 59367 27000.00000 0 13052496.889 7925180.997 20416278.018 10 0 59367 27900.00000 0 13985284.021 10158621.495 18741869.777 10 0 59367 28800.00000 0 14980991.067 12111178.958 16702932.768 10 0 59367 29700.00000 0 15985354.504 13748539.844 14339147.263 10 0 59367 30600.00000 0 16940279.861 15048568.751 11696512.066 10 0 59367 31500.00000 0 17786369.671 16001982.365 8826445.087 10 0 59367 32400.00000 0 18465523.916 16612490.166 5784777.867 10 0 59367 33300.00000 0 18923502.710 16896397.439 2630664.020 10 0 59367 34200.00000 0 19112342.520 16881688.775 -574576.538 10 0 59367 35100.00000 0 18992523.489 16606632.308 -3768654.462 10 0 59367 36000.00000 0 18534795.959 16117965.031 -6889525.089 10 0 59367 36900.00000 0 17721588.887 15468737.131 -9876595.542 10 0 59367 37800.00000 0 16547940.606 14715907.466 -12671901.020 10 0 59367 38700.00000 0 15021912.543 13917792.487 -15221227.338 10 0 59367 39600.00000 0 13164468.436 13131476.697 -17475157.964 10 0 59367 40500.00000 0 11008823.879 12410293.960 -19390025.749 10 0 59367 41400.00000 0 8599293.066 11801485.533 -20928751.574 10 0 59367 42300.00000 0 5989680.478 11344132.928 -22061554.513 10 0 59367 43200.00000 0 3241283.840 11067451.873 -22766520.738 10 0 59367 44100.00000 0 420590.492 10989518.358 -23030021.121 10 0 59367 45000.00000 0 -2403238.145 11116479.620 -22846970.211 10 0 59367 45900.00000 0 -5160990.923 11442282.725 -22220922.191 10 0 59367 46800.00000 0 -7786032.689 11948931.914 -21164002.197 10 0 59367 47700.00000 0 -10216823.803 12607263.994 -19696674.270 10 0 59367 48600.00000 0 -12399230.335 13378209.587 -17847350.058 10 0 59367 49500.00000 0 -14288530.242 14214487.836 -15651845.140 10 0 59367 50400.00000 0 -15851033.130 15062664.066 -13152692.691 10 0 59367 51300.00000 0 -17065246.995 15865484.530 -10398326.842 10 0 59367 52200.00000 0 -17922544.095 16564390.705 -7442150.694 10 0 59367 53100.00000 0 -18427298.405 17102107.538 -4341506.317 10 0 59367 54000.00000 0 -18596489.205 17425196.553 -1156566.106 10 0 59367 54900.00000 0 -18458787.842 17486466.001 2050833.230 10 0 59367 55800.00000 0 -18053166.151 17247135.673 5218391.402 10 0 59367 56700.00000 0 -17427085.400 16678664.134 8284556.472 10 0 59367 57600.00000 0 -16634342.348 15764160.105 11189724.055 10 0 59367 58500.00000 0 -15732663.534 14499317.054 13877399.970 10 0 59367 59400.00000 0 -14781149.686 12892830.097 16295303.198 10 0 59367 60300.00000 0 -13837678.518 10966276.093 18396387.307 10 0 59367 61200.00000 0 -12956375.919 8753460.467 20139759.977 10 0 59367 62100.00000 0 -12185262.607 6299256.706 21491482.538 10 0 59367 63000.00000 0 -11564175.841 3657985.768 22425233.790 10 0 59367 63900.00000 0 -11123054.096 891402.139 22922825.065 10 0 59367 64800.00000 0 -10880657.190 -1933630.401 22974556.508 10 0 59367 65700.00000 0 -10843775.925 -4747677.151 22579407.603 10 0 59367 66600.00000 0 -11006964.589 -7481379.776 21745058.178 10 0 59367 67500.00000 0 -11352807.556 -10068102.796 20487739.396 10 0 59367 68400.00000 0 -11852708.635 -12446469.510 18831917.532 10 0 59367 69300.00000 0 -12468169.699 -14562682.061 16809816.546 10 0 59367 70200.00000 0 -13152504.350 -16372529.455 14460788.704 10 0 59367 71100.00000 0 -13852913.919 -17843000.331 11830545.423 10 0 59367 72000.00000 0 -14512837.651 -18953433.812 8970263.510 10 0 59367 72900.00000 0 -15074477.227 -19696161.287 5935584.423 10 0 59367 73800.00000 0 -15481388.316 -20076613.374 2785526.422 10 0 59367 74700.00000 0 -15681028.983 -20112888.908 -418668.584 10 0 59367 75600.00000 0 -15627156.637 -19834805.540 -3614730.469 10 0 59367 76500.00000 0 -15281971.681 -19282473.377 -6740574.731 10 0 59367 77400.00000 0 -14617916.906 -18504453.150 -9735510.501 10 0 59367 78300.00000 0 -13619056.347 -17555577.754 -12541418.886 10 0 59367 79200.00000 0 -12281975.193 -16494529.907 -15103878.635 10 0 59367 80100.00000 0 -10616162.634 -15381278.625 -17373217.333 10 0 59367 81000.00000 0 -8643861.290 -14274482.678 -19305468.171 10 0 59367 81900.00000 0 -6399389.053 -13228970.119 -20863214.475 10 0 59367 82800.00000 0 -3927961.241 -12293399.392 -22016306.417 10 0 59367 83700.00000 0 -1284061.438 -11508199.498 -22742437.046 10 0 59367 84600.00000 0 1470572.133 -10903874.757 -23027567.449 10 0 59367 85500.00000 0 4269261.983 -10499744.357 -22866193.584 99